Total_Precipitation_Accumulation
0.01 0.05 0.12 0.26 0.63 1.04 1.04 0.62 0.41 0.21 0.24 0.34 0.47 0.56 0.50 0.47 0.57 0.89 0.46 0.16 0.07 0.03 0.05 0.11 0.17 0.11 0.09 0.09 0.12 0.13 0.13 0.12 0.11 0.08 0.07 0.07 0.07 0.09 0.11 0.14 0.17 0.18 0.19 0.19 0.18 0.20 0.21 0.19 0.20
0.02 0.07 0.16 0.41 0.84 0.96 0.80 0.49 0.26 0.19 0.23 0.36 0.43 0.39 0.35 0.31 0.27 0.19 0.22 0.22 0.13 0.06 0.05 0.05 0.11 0.12 0.08 0.08 0.11 0.13 0.12 0.11 0.11 0.09 0.07 0.09 0.10 0.13 0.15 0.18 0.19 0.20 0.20 0.18 0.17 0.21 0.19 0.18 0.22
0.04 0.07 0.20 0.48 0.69 0.59 0.46 0.29 0.22 0.23 0.32 0.42 0.41 0.34 0.34 0.37 0.22 0.13 0.17 0.20 0.13 0.06 0.04 0.05 0.08 0.09 0.08 0.08 0.11 0.12 0.12 0.11 0.10 0.09 0.09 0.11 0.12 0.15 0.16 0.17 0.18 0.19 0.21 0.20 0.22 0.23 0.16 0.17 0.23
0.04 0.10 0.23 0.37 0.36 0.32 0.26 0.23 0.21 0.21 0.37 0.54 0.57 0.40 0.28 0.25 0.20 0.15 0.15 0.13 0.09 0.07 0.05 0.07 0.10 0.10 0.09 0.10 0.12 0.13 0.12 0.11 0.11 0.10 0.11 0.13 0.14 0.16 0.16 0.18 0.19 0.21 0.21 0.20 0.21 0.20 0.19 0.22 0.26
0.04 0.12 0.34 0.32 0.25 0.24 0.23 0.20 0.19 0.22 0.31 0.55 0.64 0.58 0.41 0.31 0.26 0.20 0.21 0.11 0.06 0.07 0.08 0.09 0.13 0.12 0.10 0.10 0.12 0.13 0.12 0.12 0.12 0.11 0.11 0.14 0.17 0.17 0.17 0.19 0.21 0.22 0.23 0.20 0.19 0.19 0.22 0.29 0.35
0.06 0.14 0.21 0.22 0.15 0.13 0.13 0.14 0.21 0.26 0.43 0.54 0.54 0.60 0.57 0.40 0.34 0.22 0.24 0.15 0.09 0.07 0.07 0.11 0.14 0.12 0.12 0.12 0.13 0.13 0.13 0.13 0.13 0.13 0.13 0.15 0.16 0.18 0.19 0.19 0.21 0.24 0.25 0.23 0.21 0.20 0.23 0.27 0.33
0.04 0.10 0.11 0.15 0.12 0.10 0.10 0.13 0.25 0.32 0.60 0.74 0.77 0.71 0.72 0.60 0.38 0.28 0.27 0.22 0.19 0.14 0.10 0.13 0.14 0.14 0.15 0.16 0.16 0.15 0.16 0.16 0.17 0.16 0.16 0.16 0.16 0.18 0.21 0.23 0.23 0.26 0.28 0.26 0.25 0.25 0.27 0.26 0.31
0.01 0.03 0.06 0.09 0.09 0.08 0.09 0.12 0.21 0.30 0.51 0.57 0.71 0.82 0.95 0.73 0.46 0.39 0.39 0.39 0.38 0.36 0.28 0.23 0.21 0.21 0.20 0.19 0.20 0.20 0.20 0.21 0.22 0.19 0.20 0.23 0.25 0.27 0.30 0.30 0.31 0.34 0.34 0.35 0.37 0.38 0.39 0.40 0.40
0.01 0.02 0.04 0.06 0.05 0.05 0.06 0.12 0.18 0.30 0.41 0.45 0.59 0.73 0.87 0.63 0.54 0.59 0.67 0.68 0.67 0.63 0.57 0.43 0.37 0.30 0.31 0.29 0.27 0.31 0.31 0.31 0.32 0.34 0.36 0.42 0.61 0.64 0.66 0.55 0.57 0.57 0.56 0.58 0.60 0.61 0.63 0.61 0.58
0.01 0.02 0.02 0.02 0.02 0.03 0.07 0.12 0.18 0.28 0.64 0.86 1.01 0.92 0.76 0.72 0.73 0.76 0.81 0.80 0.86 0.85 0.66 0.63 0.59 0.42 0.43 0.45 0.50 0.66 0.65 0.66 0.68 0.73 0.72 0.92 1.05 0.99 0.80 0.80 0.98 1.02 1.05 1.04 1.05 1.15 1.09 0.91 0.75
0.00 0.01 0.01 0.01 0.01 0.01 0.05 0.10 0.12 0.25 0.75 1.31 1.46 1.14 0.80 0.89 0.98 1.03 1.06 1.12 1.00 1.01 0.86 0.94 0.90 0.73 0.64 0.76 0.70 0.81 1.00 1.14 1.13 1.11 1.22 1.36 1.22 1.04 0.93 1.04 1.27 1.34 1.40 1.40 1.55 1.73 1.49 1.47 1.45
0.00 0.00 0.00 0.00 0.01 0.02 0.04 0.10 0.14 0.29 0.74 1.16 1.20 0.96 0.78 0.97 1.10 1.32 1.41 1.54 1.57 1.50 1.43 1.40 1.39 1.30 1.20 1.06 1.04 0.99 1.00 1.10 1.24 1.30 1.30 1.50 1.52 1.46 1.37 1.33 1.34 1.42 1.53 1.76 1.83 1.97 2.05 2.09 1.88
0.00 0.00 0.00 0.00 0.01 0.02 0.05 0.10 0.20 0.38 0.51 0.56 0.68 0.72 0.81 1.08 1.36 1.70 1.86 1.98 2.04 2.24 2.32 2.29 2.12 1.86 1.87 1.75 1.52 1.23 1.23 1.21 1.22 1.42 1.48 1.60 1.70 1.79 1.78 1.64 1.59 1.42 1.54 1.83 2.08 2.01 2.16 2.32 2.22
0.00 0.00 0.00 0.01 0.01 0.02 0.04 0.10 0.24 0.44 0.46 0.49 0.59 0.65 0.78 1.19 1.69 2.15 2.22 2.30 2.48 3.04 3.41 3.19 2.96 2.63 2.44 2.26 2.04 1.88 1.65 1.54 1.39 1.47 1.56 1.79 1.94 2.00 1.99 1.82 1.72 1.46 1.47 1.70 1.98 2.00 2.17 2.20 2.22
0.00 0.01 0.03 0.04 0.03 0.07 0.06 0.14 0.37 0.58 0.47 0.48 0.65 0.71 0.80 1.16 1.60 2.33 2.67 2.86 3.07 3.68 4.18 3.91 3.78 3.70 3.38 3.08 2.64 2.21 1.85 1.65 1.75 1.81 1.97 2.09 2.19 2.23 2.18 2.01 1.74 1.61 1.73 1.82 1.83 1.88 2.27 2.13 2.00
0.01 0.01 0.06 0.07 0.05 0.08 0.09 0.37 0.57 0.63 0.55 0.56 0.81 0.80 0.81 1.12 1.60 2.31 2.90 3.33 3.62 3.90 4.24 4.53 4.27 4.55 4.38 3.93 3.36 2.84 2.52 2.37 2.26 2.17 2.27 2.17 2.15 2.18 2.30 1.97 1.65 1.78 1.94 1.90 1.85 1.91 2.13 2.14 2.23
0.01 0.03 0.07 0.11 0.10 0.10 0.14 0.51 0.67 0.50 0.56 0.68 0.82 0.90 0.96 1.20 1.55 2.02 2.64 3.17 3.67 4.16 4.59 4.98 5.18 5.24 4.80 4.31 3.76 3.42 3.13 2.87 2.52 2.07 1.83 1.70 1.63 1.61 1.63 1.34 1.24 1.45 1.54 1.41 1.36 1.63 1.79 1.83 1.97
0.02 0.05 0.11 0.23 0.19 0.12 0.17 0.44 0.58 0.53 0.54 0.73 0.92 0.92 1.01 1.22 1.57 1.96 2.47 2.93 3.50 4.26 5.05 5.41 5.46 5.04 4.54 4.10 3.51 3.21 2.90 2.63 2.33 1.87 1.53 1.31 1.24 1.19 1.21 0.98 0.92 1.16 1.28 1.23 1.33 1.40 1.41 1.36 1.44
0.02 0.05 0.12 0.19 0.13 0.13 0.23 0.43 0.50 0.56 0.63 0.82 0.98 0.98 1.05 1.16 1.51 1.94 2.41 2.93 3.56 4.40 5.27 5.52 5.17 4.59 4.04 3.52 2.92 2.43 2.12 1.90 1.84 1.59 1.27 1.17 1.15 1.12 1.19 1.00 1.06 1.16 1.18 1.16 1.20 1.21 1.14 0.98 1.13
0.05 0.07 0.12 0.16 0.11 0.13 0.20 0.42 0.60 0.71 0.84 0.83 0.88 0.98 0.96 1.17 1.57 2.05 2.62 3.04 3.37 3.87 4.56 4.71 4.27 3.64 2.98 2.54 2.28 2.05 1.89 1.57 1.39 1.33 1.18 0.96 0.97 0.98 1.02 1.00 0.83 0.86 0.91 0.84 0.86 1.02 1.06 0.91 1.00
0.07 0.08 0.12 0.15 0.08 0.13 0.20 0.49 0.77 0.89 0.75 0.62 0.55 0.66 0.71 0.90 1.40 2.10 2.60 2.89 3.16 3.34 3.28 3.32 3.07 2.54 2.18 1.96 1.81 1.72 1.69 1.47 1.22 1.09 0.94 0.79 0.74 0.74 0.77 0.75 0.73 0.79 0.80 0.82 0.80 0.83 0.88 0.83 0.79
0.07 0.05 0.05 0.05 0.06 0.20 0.30 0.76 1.00 0.90 0.75 0.61 0.48 0.48 0.52 0.76 1.23 1.96 2.23 2.29 2.37 2.46 2.24 2.17 2.17 1.97 1.85 1.70 1.51 1.31 1.13 1.01 0.91 0.88 0.80 0.73 0.66 0.62 0.60 0.62 0.59 0.63 0.68 0.80 0.69 0.71 0.73 0.74 0.65
0.05 0.04 0.04 0.07 0.11 0.25 0.43 0.73 1.02 0.85 0.80 0.61 0.45 0.41 0.48 0.62 0.91 1.25 1.29 1.39 1.49 1.58 1.56 1.61 1.82 1.84 1.72 1.65 1.61 1.48 1.18 0.97 0.89 0.87 0.85 0.77 0.71 0.64 0.60 0.59 0.59 0.55 0.53 0.58 0.62 0.70 0.67 0.66 0.61
0.04 0.05 0.11 0.23 0.34 0.66 0.67 0.73 1.05 0.89 0.69 0.47 0.38 0.41 0.37 0.43 0.60 0.80 0.85 0.88 0.95 0.99 1.05 1.19 1.55 1.70 1.63 1.55 1.51 1.41 1.27 1.11 0.95 0.83 0.75 0.70 0.71 0.71 0.69 0.65 0.66 0.59 0.54 0.56 0.57 0.60 0.59 0.63 0.68
0.05 0.09 0.26 0.60 1.00 1.12 0.69 0.71 1.00 0.64 0.43 0.32 0.26 0.28 0.32 0.41 0.50 0.63 0.78 0.79 0.73 0.72 0.78 0.91 1.10 1.21 1.25 1.31 1.38 1.36 1.34 1.21 1.02 0.89 0.73 0.67 0.65 0.65 0.72 0.74 0.70 0.66 0.64 0.60 0.59 0.58 0.57 0.62 0.70
0.07 0.09 0.18 0.36 0.46 0.59 0.59 0.97 1.08 0.55 0.36 0.26 0.19 0.20 0.28 0.33 0.36 0.39 0.49 0.49 0.49 0.54 0.57 0.65 0.77 0.85 0.94 1.04 1.14 1.21 1.18 1.09 0.95 0.94 0.79 0.67 0.61 0.63 0.71 0.74 0.67 0.63 0.61 0.60 0.63 0.56 0.52 0.60 0.68
0.06 0.06 0.07 0.08 0.14 0.35 0.65 0.87 0.76 0.48 0.32 0.22 0.17 0.14 0.17 0.19 0.19 0.20 0.21 0.23 0.27 0.37 0.48 0.57 0.64 0.69 0.77 0.84 0.96 1.02 1.01 0.96 0.95 0.92 0.79 0.71 0.74 0.73 0.76 0.70 0.68 0.64 0.61 0.62 0.64 0.62 0.64 0.68 0.70
0.07 0.06 0.06 0.05 0.15 0.33 0.58 0.87 0.88 0.58 0.39 0.27 0.18 0.15 0.15 0.15 0.13 0.14 0.14 0.13 0.14 0.18 0.33 0.48 0.54 0.64 0.75 0.80 0.78 0.79 0.90 0.89 0.89 0.86 0.77 0.79 0.80 0.77 0.81 0.79 0.75 0.71 0.67 0.69 0.76 0.73 0.72 0.79 0.86
0.06 0.06 0.06 0.06 0.08 0.19 0.44 0.65 0.54 0.39 0.24 0.21 0.17 0.14 0.15 0.16 0.14 0.13 0.12 0.11 0.12 0.14 0.23 0.34 0.43 0.52 0.60 0.64 0.66 0.77 0.83 0.83 0.82 0.81 0.76 0.77 0.75 0.76 0.76 0.76 0.78 0.75 0.78 0.92 1.11 1.09 1.00 1.01 1.06
0.06 0.06 0.07 0.09 0.09 0.13 0.24 0.33 0.26 0.25 0.21 0.19 0.18 0.17 0.20 0.21 0.18 0.16 0.14 0.10 0.10 0.13 0.17 0.25 0.29 0.32 0.35 0.42 0.49 0.60 0.73 0.73 0.73 0.75 0.81 0.82 0.78 0.71 0.63 0.64 0.70 0.70 0.77 0.93 1.20 1.33 1.32 1.27 1.17